This demonstration page uses our WeatherBlox Daily Observations layout. Learn more.

Left ArrowRight Arrow

53.62937, 11.41316

Hourly Observations for May 12, 2021

Temp ( °F °C ) Dew Point ( °F °C ) Humidity (%) Winds ( mph kmh ) Pressure ( in mb ) Visibility ( mi km ) Precip ( " mm )
7:20 am 07:20 Cloudy 52 11 50 10 94 94 W 6 9 29.74 1007 30 48 N/A
7:50 am 07:50 Cloudy 52 11 50 10 94 94 SW 7 11 29.74 1007 30 48 N/A
8:20 am 08:20 Cloudy 52 11 50 10 94 94 SW 6 9 29.74 1007 30 48 N/A
8:50 am 08:50 Mostly Cloudy 54 12 50 10 88 88 SW 6 9 29.74 1007 30 48 N/A
9:20 am 09:20 Mostly Cloudy with Light Rain 54 12 50 10 88 88 SW 6 9 29.77 1008 30 48 N/A
9:50 am 09:50 Mostly Cloudy 54 12 50 10 88 88 SW 8 13 29.77 1008 30 48 N/A
10:20 am 10:20 Mostly Cloudy 55 13 50 10 82 82 WSW 8 13 29.77 1008 30 48 N/A
10:50 am 10:50 Mostly Cloudy 57 14 52 11 82 82 WSW 9 15 29.77 1008 30 48 N/A
11:20 am 11:20 Mostly Cloudy 57 14 50 10 77 77 WSW 6 9 29.77 1008 30 48 N/A
11:50 am 11:50 Mostly Cloudy 57 14 50 10 77 77 WSW 8 13 29.77 1008 30 48 N/A
12:20 pm 12:20 Mostly Cloudy 57 14 50 10 77 77 WSW 8 13 29.77 1008 30 48 N/A
12:50 pm 12:50 Mostly Cloudy 57 14 50 10 77 77 WSW 9 15 29.77 1008 30 48 N/A
1:20 pm 13:20 Mostly Cloudy 59 15 50 10 72 72 WSW 9 15 29.80 1009 30 48 N/A
1:50 pm 13:50 Mostly Cloudy 59 15 50 10 72 72 VRB 7 11 29.77 1008 30 48 N/A
2:20 pm 14:20 Mostly Cloudy 59 15 50 10 72 72 SW 8 13 29.80 1009 30 48 N/A
2:50 pm 14:50 Partly Cloudy 59 15 50 10 72 72 WSW 8 13 29.80 1009 30 48 N/A
3:20 pm 15:20 Partly Cloudy 59 15 50 10 72 72 SW 8 13 29.80 1009 30 48 N/A
3:50 pm 15:50 Partly Cloudy 61 16 50 10 68 68 WSW 8 13 29.80 1009 30 48 N/A
4:20 pm 16:20 Mostly Sunny 61 16 48 9 63 63 WSW 6 9 29.80 1009 30 48 N/A
4:50 pm 16:50 Mostly Sunny 61 16 48 9 63 63 WSW 7 11 29.80 1009 30 48 N/A
5:20 pm 17:20 Mostly Sunny 61 16 48 9 63 63 VRB 3 6 29.80 1009 30 48 N/A
5:50 pm 17:50 Partly Cloudy 59 15 50 10 72 72 WSW 8 13 29.80 1009 30 48 N/A
6:20 pm 18:20 Partly Cloudy with Light Rain 59 15 50 10 72 72 WSW 5 7 29.80 1009 30 48 N/A
6:50 pm 18:50 Mostly Cloudy with Light Rain 57 14 52 11 82 82 WSW 5 7 29.80 1009 30 48 N/A
7:20 pm 19:20 Partly Cloudy with Light Rain 55 13 54 12 94 94 WSW 5 7 29.83 1010 30 48 N/A
7:50 pm 19:50 Partly Cloudy with Drizzle 55 13 54 12 94 94 WSW 3 6 29.83 1010 30 48 N/A
8:20 pm 20:20 Mostly Cloudy with Light Rain 55 13 52 11 88 88 WSW 3 6 29.83 1010 30 48 N/A
8:50 pm 20:50 Mostly Cloudy with Light Rain 54 12 54 12 100 100 WSW 3 6 29.83 1010 30 48 N/A
9:20 pm 21:20 Mostly Cloudy with Drizzle 54 12 52 11 94 94 WSW 3 6 29.83 1010 30 48 N/A

Powered by AerisWeather